This is the latest recevied weather packets stored in our database for station/object K4CRS-13. If no packets are shown the sender has not sent any weather packets the latest 10 day(s).
| Time | Temp. | Humidity | Pressure | Rain* | Wind** | Luminosity | Snow |
|---|---|---|---|---|---|---|---|
| 1787680245 | 32.22° C | 48% | 1052.9 hPa | 0 mm | - | 774 W/m² | - |
| 1787679944 | 32.22° C | 48% | 1053.1 hPa | 0 mm | - | 781 W/m² | - |
| 1787679639 | 32.78° C | 48% | 1053.1 hPa | 0 mm | - | 842 W/m² | - |
| 1787679334 | 32.22° C | 50% | 1053.2 hPa | 0 mm | - | 936 W/m² | - |
| 1787679030 | 31.67° C | 49% | 1053.2 hPa | 0 mm | - | 527 W/m² | - |
| 1787678730 | 31.67° C | 48% | 1053.2 hPa | 0 mm | - | 565 W/m² | - |
| 1787678430 | 32.22° C | 52% | 1053.3 hPa | 0 mm | - | 627 W/m² | - |
| 1787678126 | 32.78° C | 53% | 1053.3 hPa | 0 mm | - | 833 W/m² | - |
| 1787677825 | 32.22° C | 50% | 1053.4 hPa | 0 mm | - | 453 W/m² | - |
| 1787677520 | 31.67° C | 54% | 1053.2 hPa | 0 mm | - | 544 W/m² | - |
| 1787677220 | 31.67° C | 53% | 1053.2 hPa | 0 mm | - | 633 W/m² | - |
| 1787676918 | 31.67° C | 50% | 1053.6 hPa | 0 mm | - | 579 W/m² | - |
| 1787676614 | 31.67° C | 52% | 1053.5 hPa | 0 mm | - | 359 W/m² | - |
| 1787676310 | 31.67° C | 51% | 1053.5 hPa | 0 mm | - | 853 W/m² | - |
| 1787676007 | 31.67° C | 54% | 1053.6 hPa | 0 mm | - | 766 W/m² | - |
| 1787675702 | 31.11° C | 55% | 1053.7 hPa | 0 mm | - | 760 W/m² | - |
| 1787675401 | 31.67° C | 54% | 1053.5 hPa | 0 mm | - | 731 W/m² | - |
| 1787675095 | 31.11° C | 51% | 1053.7 hPa | 0 mm | - | 816 W/m² | - |
| 1787674795 | 31.67° C | 53% | 1053.7 hPa | 0 mm | - | 418 W/m² | - |
| 1787674491 | 31.11° C | 53% | 1053.5 hPa | 0 mm | - | 650 W/m² | - |
| 1787674187 | 30.56° C | 54% | 1053.8 hPa | 0 mm | - | 766 W/m² | - |
| 1787673881 | 30.56° C | 54% | 1053.7 hPa | 0 mm | - | 543 W/m² | - |
| 1787673577 | 31.11° C | 53% | 1053.7 hPa | 0 mm | - | 657 W/m² | - |
| 1787673276 | 31.67° C | 52% | 1053.7 hPa | 0 mm | - | 676 W/m² | - |
| 1787672975 | 31.11° C | 54% | 1053.9 hPa | 0 mm | - | 657 W/m² | - |
* Rain latest hour (hover to see other rain measurements)
** Current wind speed in m/s (hover to see current wind gust speed)